Location: Newark
(48.4472°N, 1.4892°E)
Time: 10:29:34
(UTC+00:00)

Transit 4A - Pass Details

Date: 22 January 2021
Orbit: 866 x 978 km, 66.8° (Epoch: 26 February)

Event Time Altitude Azimuth Distance (km) Brightness Sun altitude
Exits shadow 05:51:48 18° 243° (WSW) 2,111 9.3 -16.8°
Drops below altitude 10° 05:54:39 10° 215° (SW) 2,583 10.0 -16.3°
Sets 05:57:53 0° 197° (SSW) 3,498 10.9 -15.8°
